• In Deutschland
  • Länderverzeichnis
  • Für 7 Tage
  • Wassertemperatur
  • Satellitenkarten
  • Wetterkarte
  • Widgets
  • user-avatar
    Anmelden

    Stündliche Wetter Bad Bellingen

    Heute, 17 Januar, Mittwoch

    Zeit Temperatur Niederschläge Wind Luftdruck Luftfeuchtigkeit
    00:00 +4°C° 0,6 mm 7 m/S 723 mmHg 80%
    01:00 +5°C° 0 mm 5 m/S 723 mmHg 82%
    02:00 +3°C° 0,9 mm 6 m/S 723 mmHg 81%
    03:00 +3°C° 0,9 mm 7 m/S 723 mmHg 81%
    04:00 +2°C° 0,9 mm 8 m/S 723 mmHg 80%
    05:00 +1°C° 0,6 mm 8 m/S 724 mmHg 80%
    06:00 +1°C° 0,6 mm 8 m/S 725 mmHg 80%
    07:00 +1°C° 0 mm 5 m/S 726 mmHg 80%
    08:00 +1°C° 0,4 mm 6 m/S 727 mmHg 79%
    09:00 0°C° 0,4 mm 7 m/S 727 mmHg 78%
    10:00 -1°C° 0,4 mm 7 m/S 728 mmHg 77%
    11:00 0°C° 0,3 mm 8 m/S 729 mmHg 76%
    12:00 0°C° 0,3 mm 8 m/S 730 mmHg 74%
    13:00 +2°C° 0 mm 6 m/S 731 mmHg 71%
    14:00 +1°C° 0,1 mm 6 m/S 731 mmHg 73%
    15:00 +1°C° 0,1 mm 6 m/S 732 mmHg 74%
    16:00 +1°C° 0,1 mm 6 m/S 732 mmHg 76%
    17:00 +1°C° 0,1 mm 6 m/S 733 mmHg 78%
    18:00 +1°C° 0,1 mm 6 m/S 734 mmHg 79%
    19:00 -1°C° 0,1 mm 6 m/S 734 mmHg 81%
    20:00 -1°C° 0,2 mm 6 m/S 734 mmHg 82%
    21:00 -1°C° 0,2 mm 6 m/S 735 mmHg 83%
    22:00 0°C° 0,2 mm 5 m/S 735 mmHg 84%
    23:00 +1°C° 0,3 mm 5 m/S 735 mmHg 84%

    Morgen, 18 Januar, Donnerstag

    Zeit Temperatur Niederschläge Wind Luftdruck Luftfeuchtigkeit
    00:00 +1°C° 0,3 mm 5 m/S 735 mmHg 85%
    01:00 +1°C° 0,3 mm 5 m/S 735 mmHg 85%
    02:00 +1°C° 0,3 mm 5 m/S 734 mmHg 85%
    03:00 +2°C° 0,3 mm 6 m/S 734 mmHg 85%
    04:00 +2°C° 0,3 mm 6 m/S 733 mmHg 84%
    05:00 +2°C° 0,6 mm 6 m/S 733 mmHg 83%
    06:00 +2°C° 0,6 mm 7 m/S 732 mmHg 82%
    07:00 +2°C° 0,6 mm 8 m/S 731 mmHg 81%
    08:00 +2°C° 0,9 mm 8 m/S 731 mmHg 81%
    09:00 +4°C° 0,9 mm 8 m/S 730 mmHg 81%
    10:00 +4°C° 0,9 mm 8 m/S 730 mmHg 81%
    11:00 +4°C° 0,7 mm 8 m/S 730 mmHg 82%
    12:00 +5°C° 0,7 mm 8 m/S 729 mmHg 82%
    13:00 +5°C° 0,7 mm 8 m/S 729 mmHg 83%
    14:00 +5°C° 0,6 mm 8 m/S 729 mmHg 84%
    15:00 +5°C° 0,6 mm 7 m/S 729 mmHg 85%
    16:00 +5°C° 0,6 mm 7 m/S 729 mmHg 86%
    17:00 +6°C° 0,9 mm 7 m/S 729 mmHg 87%
    18:00 +7°C° 0,9 mm 6 m/S 729 mmHg 87%
    19:00 +7°C° 0,9 mm 6 m/S 729 mmHg 88%
    20:00 +7°C° 0,8 mm 6 m/S 729 mmHg 88%
    21:00 +7°C° 0,8 mm 6 m/S 729 mmHg 89%
    22:00 +7°C° 0,8 mm 6 m/S 729 mmHg 89%
    23:00 +7°C° 0,5 mm 5 m/S 729 mmHg 89%

    übermorgen, 19 Januar, Freitag

    Zeit Temperatur Niederschläge Wind Luftdruck Luftfeuchtigkeit
    00:00 +6°C° 0,5 mm 5 m/S 729 mmHg 89%
    01:00 +6°C° 0,5 mm 5 m/S 729 mmHg 89%
    02:00 +6°C° 0,4 mm 5 m/S 729 mmHg 88%
    03:00 +5°C° 0,4 mm 5 m/S 730 mmHg 87%
    04:00 +3°C° 0,4 mm 5 m/S 730 mmHg 86%
    05:00 +3°C° 0,3 mm 5 m/S 730 mmHg 86%
    06:00 +4°C° 0,3 mm 4 m/S 731 mmHg 87%
    07:00 +3°C° 0,3 mm 4 m/S 731 mmHg 87%
    08:00 +3°C° 0,3 mm 3 m/S 731 mmHg 86%
    09:00 +3°C° 0,3 mm 3 m/S 732 mmHg 86%
    10:00 +3°C° 0,3 mm 3 m/S 732 mmHg 85%
    11:00 +3°C° 0,2 mm 3 m/S 732 mmHg 82%
    12:00 +4°C° 0,2 mm 4 m/S 732 mmHg 79%
    13:00 +4°C° 0,2 mm 4 m/S 733 mmHg 76%
    14:00 +4°C° 0,2 mm 4 m/S 733 mmHg 77%
    15:00 +4°C° 0,2 mm 4 m/S 733 mmHg 78%
    16:00 +3°C° 0,2 mm 3 m/S 733 mmHg 80%
    17:00 +3°C° 0,2 mm 3 m/S 733 mmHg 82%
    18:00 +3°C° 0,2 mm 2 m/S 732 mmHg 85%
    19:00 +3°C° 0,2 mm 2 m/S 732 mmHg 88%
    20:00 +3°C° 0,7 mm 2 m/S 732 mmHg 89%
    21:00 +2°C° 0,7 mm 3 m/S 732 mmHg 90%
    22:00 +2°C° 0,7 mm 3 m/S 733 mmHg 91%
    23:00 +2°C° 0,3 mm 3 m/S 733 mmHg 90%

    20 Januar, Samstag

    Zeit Temperatur Niederschläge Wind Luftdruck Luftfeuchtigkeit
    00:00 0°C° 0,3 mm 4 m/S 733 mmHg 90%
    01:00 0°C° 0,3 mm 4 m/S 733 mmHg 89%
    02:00 0°C° 0,3 mm 4 m/S 734 mmHg 89%
    03:00 0°C° 0,3 mm 4 m/S 734 mmHg 89%
    04:00 0°C° 0,3 mm 4 m/S 734 mmHg 89%
    05:00 0°C° 0,3 mm 4 m/S 734 mmHg 89%
    06:00 0°C° 0,3 mm 4 m/S 734 mmHg 89%
    07:00 0°C° 0,3 mm 4 m/S 734 mmHg 89%
    08:00 0°C° 0,3 mm 4 m/S 733 mmHg 88%
    09:00 0°C° 0,3 mm 4 m/S 733 mmHg 88%
    10:00 +1°C° 0,3 mm 3 m/S 733 mmHg 87%
    11:00 +2°C° 0,6 mm 3 m/S 732 mmHg 88%
    12:00 +2°C° 0,6 mm 3 m/S 732 mmHg 88%
    13:00 +1°C° 0,6 mm 4 m/S 731 mmHg 88%
    14:00 +2°C° 0,7 mm 3 m/S 731 mmHg 89%
    15:00 +2°C° 0,7 mm 3 m/S 730 mmHg 90%
    16:00 +3°C° 0,7 mm 2 m/S 730 mmHg 91%
    17:00 +3°C° 0,8 mm 2 m/S 730 mmHg 91%
    18:00 +3°C° 0,8 mm 2 m/S 730 mmHg 91%
    19:00 +3°C° 0,8 mm 2 m/S 731 mmHg 92%
    20:00 +3°C° 0,4 mm 2 m/S 731 mmHg 92%
    21:00 +2°C° 0,4 mm 2 m/S 732 mmHg 93%
    22:00 +2°C° 0,4 mm 2 m/S 733 mmHg 94%
    23:00 +2°C° 0 mm 2 m/S 733 mmHg 94%

    21 Januar, Sonntag

    Zeit Temperatur Niederschläge Wind Luftdruck Luftfeuchtigkeit
    00:00 +2°C° 0 mm 1 m/S 734 mmHg 94%
    01:00 +1°C° 0 mm 1 m/S 734 mmHg 94%
    02:00 +1°C° 0 mm 1 m/S 735 mmHg 94%
    03:00 +1°C° 0 mm 1 m/S 736 mmHg 94%
    04:00 +1°C° 0 mm 1 m/S 736 mmHg 94%
    05:00 +1°C° 0 mm 1 m/S 737 mmHg 93%
    06:00 +1°C° 0 mm 1 m/S 737 mmHg 93%
    07:00 +2°C° 0 mm 1 m/S 737 mmHg 93%
    08:00 +2°C° 0,1 mm 1 m/S 738 mmHg 92%
    09:00 +3°C° 0,1 mm 1 m/S 738 mmHg 92%
    10:00 +3°C° 0,1 mm 1 m/S 738 mmHg 91%
    11:00 +4°C° 0,3 mm 1 m/S 738 mmHg 92%
    12:00 +4°C° 0,3 mm 1 m/S 738 mmHg 92%
    13:00 +5°C° 0,3 mm 1 m/S 738 mmHg 92%
    14:00 +4°C° 0,3 mm 2 m/S 737 mmHg 93%
    15:00 +4°C° 0,3 mm 2 m/S 737 mmHg 93%
    16:00 +4°C° 0,3 mm 2 m/S 737 mmHg 93%
    17:00 +3°C° 1 mm 3 m/S 736 mmHg 94%
    18:00 +4°C° 1 mm 3 m/S 736 mmHg 95%
    19:00 +4°C° 1 mm 3 m/S 736 mmHg 95%
    20:00 +4°C° 1,7 mm 4 m/S 736 mmHg 95%
    21:00 +5°C° 1,7 mm 4 m/S 736 mmHg 96%
    22:00 +6°C° 1,7 mm 4 m/S 735 mmHg 96%
    23:00 +6°C° 1,4 mm 4 m/S 736 mmHg 96%

    22 Januar, Montag

    Zeit Temperatur Niederschläge Wind Luftdruck Luftfeuchtigkeit
    00:00 +6°C° 1,4 mm 4 m/S 736 mmHg 96%
    01:00 +7°C° 1,4 mm 4 m/S 736 mmHg 96%
    02:00 +7°C° 0,7 mm 4 m/S 736 mmHg 96%
    03:00 +7°C° 0,7 mm 4 m/S 736 mmHg 96%
    04:00 +8°C° 0,7 mm 3 m/S 737 mmHg 96%
    05:00 +8°C° 0,9 mm 3 m/S 737 mmHg 96%
    06:00 +8°C° 0,9 mm 3 m/S 737 mmHg 96%
    07:00 +8°C° 0,9 mm 3 m/S 738 mmHg 96%
    08:00 +8°C° 0,3 mm 3 m/S 738 mmHg 96%
    09:00 +8°C° 0,3 mm 3 m/S 738 mmHg 96%
    10:00 +8°C° 0,3 mm 2 m/S 739 mmHg 95%
    11:00 +8°C° 1,4 mm 3 m/S 739 mmHg 95%
    12:00 +8°C° 1,4 mm 3 m/S 739 mmHg 95%
    13:00 +8°C° 1,4 mm 3 m/S 739 mmHg 94%
    14:00 +9°C° 0,5 mm 3 m/S 739 mmHg 94%
    15:00 +9°C° 0,5 mm 3 m/S 739 mmHg 94%
    16:00 +9°C° 0,5 mm 3 m/S 740 mmHg 94%
    17:00 +9°C° 0,1 mm 3 m/S 740 mmHg 94%
    18:00 +9°C° 0,1 mm 3 m/S 740 mmHg 95%
    19:00 +9°C° 0,1 mm 3 m/S 740 mmHg 95%
    20:00 +9°C° 0 mm 3 m/S 740 mmHg 95%
    21:00 +8°C° 0 mm 3 m/S 741 mmHg 94%
    22:00 +8°C° 0 mm 3 m/S 741 mmHg 94%
    23:00 +8°C° 0 mm 3 m/S 741 mmHg 94%
    Mehr zeigen